Вернуться в каталог

STARLINK-31464

АктивенСвязьVLEO
NORAD 59318·PAYLOAD·🇺🇸 United States

Запущен Mar 24, 2024 с Cape Canaveral Space Force Station

Loading…

Ближайшие Пролёты (ближайшие 24 часа)

TLE

СвежийSource: CelesTrak SupGP

Эпоха: Sep 14, 2026, 22:31 UTC

1 59318C 24056Y   26257.93868056  .00027904  00000+0  10107-2 0  2579
2 59318  43.0002 241.7542 0001352 262.0187 309.9657 15.27562804    19

Отслеживайте STARLINK-31464 в реальном времени с AllMySat

Download on the App Store